Overview Statistics Trail Chart Weather Telemetry Raw packets
 

This is the latest recevied weather packets stored in our database for station/object GBTWP-2. If no packets are shown the sender has not sent any weather packets the latest 10 day(s).

<< 87 88 89 90 91 92 93 >>
Time Temp. Humidity Pressure Rain* Wind** Luminosity Snow
1788040019 25° C 62% 1022 hPa 0 mm - 71 W/m² -
1788039720 25° C 62% 1022 hPa 0 mm - 68 W/m² -
1788039420 25° C 61% 1022.3 hPa 0 mm - 63 W/m² -
1788039118 25° C 61% 1022.3 hPa 0 mm - 65 W/m² -
1788038820 25° C 61% 1022.3 hPa 0 mm - 82 W/m² -
1788038517 25° C 61% 1022.4 hPa 0 mm - 92 W/m² -
1788038220 25° C 61% 1022.4 hPa 0 mm - 84 W/m² -
1788037920 25° C 61% 1022.5 hPa 0 mm - 67 W/m² -
1788037620 25° C 60% 1022.5 hPa 0 mm - 71 W/m² -
1788037320 25.56° C 60% 1022.5 hPa 0 mm - 77 W/m² -
1788037021 25.56° C 59% 1022.5 hPa 0 mm - 76 W/m² -
1788036720 25.56° C 60% 1022.5 hPa 0 mm - 83 W/m² -
1788036420 25.56° C 59% 1022.6 hPa 0 mm - 109 W/m² -
1788036119 25.56° C 59% 1022.6 hPa 0 mm - 119 W/m² -
1788035822 25.56° C 59% 1022.7 hPa 0 mm - 100 W/m² -
1788035217 26.11° C 57% 1022.9 hPa 0 mm - 131 W/m² -
1788034920 26.11° C 57% 1022.9 hPa 0 mm - 162 W/m² -
1788034619 26.11° C 57% 1022.8 hPa 0 mm - 171 W/m² -
1788034320 26.11° C 57% 1022.9 hPa 0 mm - 204 W/m² -
1788034018 25.56° C 56% 1023 hPa 0 mm - 191 W/m² -
1788033720 25.56° C 57% 1023 hPa 0 mm - 199 W/m² -
1788033421 25.56° C 56% 1023.1 hPa 0 mm - 156 W/m² -
1788033120 25.56° C 56% 1022.9 hPa 0 mm - 129 W/m² -
1788032820 25.56° C 56% 1023 hPa 0 mm - 126 W/m² -
1788032519 25.56° C 56% 1023.2 hPa 0 mm - 118 W/m² -

* Rain latest hour (hover to see other rain measurements)
** Current wind speed in m/s (hover to see current wind gust speed)